Weather History for Bentonville, AR

Change the Weather History Date:

Wednesday, December 4, 2013

  Actual Average Record
Temperature  
Mean Temperature 46 °F -  
Max Temperature 60 °F 51 °F 70 °F (1988)
Min Temperature 32 °F 27 °F 12 °F (1989)
Degree Days  
Heating Degree Days 19    
Moisture  
Dew Point 40 °F    
Average Humidity 78    
Maximum Humidity 93    
Minimum Humidity 55    
Precipitation  
Precipitation 0.00 in - - ()
Sea Level Pressure  
Sea Level Pressure 29.70 in    
Wind  
Wind Speed 8 mph (WSW)    
Max Wind Speed 20 mph    
Max Gust Speed 26 mph    
Visibility 7 miles    
Events      
Averages and records for this station are not official NWS values.
T = Trace of Precipitation, MM = Missing Value Source: NWS Daily Summary

Daily Weather History Graph

Daily Weather History Graph

Search for Another Location

Airport:

Trip Planner

Search our weather history database for the weather conditions in past years. The results will help you decide how hot, cold, wet, or windy it might be!

Date:

Astronomy

Dec. 04, 2013 Rise Set
Actual Time 7:12 AM CST 5:01 PM CST
Civil Twilight 6:44 AM CST 5:30 PM CST
Nautical Twilight 6:12 AM CST 6:01 PM CST
Astronomical Twilight 5:41 AM CST 6:33 PM CST
Moon 8:42 AM CST (12/4) 7:11 PM CST (12/4)
Length of Visible Light 10h 45m
Length of Day
9h 48m
Waxing Crescent, 4% of the Moon is Illuminated
Dec 4
Waxing Crescent
Dec 9
First Quarter
Dec 17
Full
Dec 25
Last Quarter
Jan 1
New

Hourly Weather History & Observations

Time (CST) Temp. Windchill Dew Point Humidity Pressure Visibility Wind Dir Wind Speed Gust Speed Precip Events Conditions
12:15 AM 46.4 °F 44.3 °F 42.8 °F 87% 29.60 in 6.0 mi SE 4.6 mph - N/A   Clear
12:35 AM 44.6 °F 42.2 °F 42.8 °F 93% 29.60 in 7.0 mi SSE 4.6 mph - N/A   Clear
12:55 AM 44.6 °F 43.1 °F 42.8 °F 93% 29.60 in 6.0 mi ESE 3.5 mph - N/A   Clear
1:15 AM 44.6 °F 41.4 °F 41.0 °F 87% 29.59 in 8.0 mi SSE 5.8 mph - N/A   Clear
1:35 AM 46.4 °F 44.3 °F 42.8 °F 87% 29.58 in 8.0 mi ESE 4.6 mph - N/A   Clear
1:55 AM 46.4 °F 44.3 °F 42.8 °F 87% 29.58 in 6.0 mi SSE 4.6 mph - N/A   Clear
2:15 AM 46.4 °F 42.9 °F 42.8 °F 87% 29.57 in 7.0 mi SE 6.9 mph - N/A   Clear
2:35 AM 44.6 °F 42.2 °F 42.8 °F 93% 29.57 in 5.0 mi SE 4.6 mph - N/A   Clear
2:55 AM 46.4 °F 43.5 °F 42.8 °F 87% 29.57 in 5.0 mi SE 5.8 mph - N/A   Clear
3:15 AM 46.4 °F 42.9 °F 42.8 °F 87% 29.56 in 5.0 mi SE 6.9 mph - N/A   Clear
3:35 AM 46.4 °F 42.9 °F 42.8 °F 87% 29.56 in 5.0 mi SE 6.9 mph - N/A   Clear
3:55 AM 44.6 °F 40.7 °F 42.8 °F 93% 29.55 in 3.0 mi SE 6.9 mph - N/A   Clear
4:15 AM 46.4 °F 42.9 °F 42.8 °F 87% 29.55 in 4.0 mi SE 6.9 mph - N/A   Clear
4:35 AM 46.4 °F 43.5 °F 42.8 °F 87% 29.55 in 4.0 mi SE 5.8 mph - N/A   Clear
4:55 AM 46.4 °F 42.9 °F 42.8 °F 87% 29.55 in 5.0 mi SE 6.9 mph - N/A   Clear
5:15 AM 46.4 °F 43.5 °F 42.8 °F 87% 29.54 in 5.0 mi SE 5.8 mph - N/A   Clear
5:35 AM 46.4 °F 42.9 °F 42.8 °F 87% 29.54 in 5.0 mi SSE 6.9 mph - N/A   Clear
5:55 AM 46.4 °F 44.3 °F 42.8 °F 87% 29.54 in 7.0 mi SSE 4.6 mph - N/A   Clear
6:15 AM 46.4 °F 43.5 °F 42.8 °F 87% 29.54 in 8.0 mi SSE 5.8 mph - N/A   Clear
6:35 AM 46.4 °F 45.2 °F 42.8 °F 87% 29.54 in 9.0 mi SSE 3.5 mph - N/A   Clear
6:55 AM 46.4 °F 44.3 °F 42.8 °F 87% 29.56 in 10.0 mi SSW 4.6 mph - N/A   Clear
7:15 AM 48.2 °F - 42.8 °F 82% 29.57 in 10.0 mi SSW 8.1 mph - N/A   Clear
7:35 AM 50.0 °F - 44.6 °F 82% 29.57 in 10.0 mi South 5.8 mph - N/A   Clear
7:55 AM 51.8 °F - 44.6 °F 76% 29.58 in 10.0 mi SSW 5.8 mph - N/A   Clear
8:15 AM 53.6 °F - 44.6 °F 72% 29.59 in 10.0 mi South 9.2 mph - N/A   Clear
8:35 AM 53.6 °F - 46.4 °F 77% 29.60 in 10.0 mi SW 6.9 mph - N/A   Clear
8:55 AM 55.4 °F - 46.4 °F 72% 29.61 in 10.0 mi SSW 9.2 mph - N/A   Clear
9:15 AM 57.2 °F - 46.4 °F 67% 29.61 in 10.0 mi SSW 11.5 mph 16.1 mph N/A   Clear
9:35 AM 57.2 °F - 46.4 °F 67% 29.63 in 10.0 mi SW 11.5 mph 16.1 mph N/A   Clear
9:55 AM 60.8 °F - 44.6 °F 55% 29.63 in 10.0 mi WSW 19.6 mph - N/A   Clear
10:15 AM 60.8 °F - 44.6 °F 55% 29.65 in 10.0 mi WSW 19.6 mph 26.5 mph N/A   Clear
10:35 AM 60.8 °F - 44.6 °F 55% 29.65 in 10.0 mi SW 12.7 mph - N/A   Clear
10:55 AM 60.8 °F - 44.6 °F 55% 29.65 in 10.0 mi SW 15.0 mph - N/A   Clear
11:15 AM 60.8 °F - 44.6 °F 55% 29.66 in 10.0 mi WSW 15.0 mph - N/A   Clear
11:35 AM 59.0 °F - 42.8 °F 55% 29.65 in 10.0 mi West 13.8 mph 23.0 mph N/A   Clear
11:55 AM 59.0 °F - 42.8 °F 55% 29.66 in 10.0 mi WSW 15.0 mph - N/A   Clear
12:15 PM 59.0 °F - 42.8 °F 55% 29.66 in 10.0 mi West 15.0 mph 19.6 mph N/A   Clear
12:35 PM 59.0 °F - 42.8 °F 55% 29.66 in 10.0 mi WSW 12.7 mph - N/A   Clear
12:55 PM 57.2 °F - 42.8 °F 59% 29.66 in 10.0 mi West 13.8 mph - N/A   Clear
1:15 PM 57.2 °F - 42.8 °F 59% 29.67 in 10.0 mi West 12.7 mph 18.4 mph N/A   Clear
1:35 PM 57.2 °F - 44.6 °F 63% 29.67 in 10.0 mi West 13.8 mph - N/A   Clear
1:55 PM 55.4 °F - 42.8 °F 63% 29.69 in 9.0 mi West 15.0 mph 18.4 mph N/A   Scattered Clouds
2:15 PM 53.6 °F - 42.8 °F 67% 29.69 in 8.0 mi West 12.7 mph - N/A   Mostly Cloudy
2:35 PM 50.0 °F - 42.8 °F 76% 29.70 in 5.0 mi WNW 12.7 mph 19.6 mph N/A   Mostly Cloudy
2:55 PM 46.4 °F 41.1 °F 41.0 °F 81% 29.71 in 3.0 mi NW 11.5 mph - N/A   Overcast
3:15 PM 46.4 °F 41.5 °F 41.0 °F 81% 29.72 in 3.0 mi West 10.4 mph - N/A   Overcast
3:35 PM 46.4 °F 41.5 °F 39.2 °F 76% 29.73 in 4.0 mi WNW 10.4 mph - N/A   Overcast
3:55 PM 42.8 °F 37.0 °F 37.4 °F 81% 29.74 in 3.0 mi NNW 10.4 mph - N/A   Overcast
4:15 PM 42.8 °F 38.0 °F 37.4 °F 81% 29.76 in 2.0 mi NW 8.1 mph - N/A   Overcast
4:35 PM 41.0 °F 35.8 °F 37.4 °F 87% 29.77 in 1.8 mi NW 8.1 mph - N/A   Overcast
4:55 PM 41.0 °F 35.8 °F 37.4 °F 87% 29.77 in 4.0 mi West 8.1 mph - N/A   Overcast
5:15 PM 41.0 °F 35.2 °F 37.4 °F 87% 29.79 in 5.0 mi WNW 9.2 mph - N/A   Overcast
5:35 PM 39.2 °F 33.6 °F 35.6 °F 87% 29.83 in 2.5 mi NW 8.1 mph - N/A   Overcast
5:55 PM 39.2 °F 33.0 °F 35.6 °F 87% 29.83 in 3.0 mi NW 9.2 mph - N/A   Overcast
6:15 PM 39.2 °F 33.0 °F 35.6 °F 87% 29.83 in 4.0 mi NW 9.2 mph - N/A   Overcast
6:35 PM 37.4 °F 31.4 °F 33.8 °F 87% 29.83 in 4.0 mi NW 8.1 mph - N/A   Overcast
6:55 PM 37.4 °F 31.4 °F 33.8 °F 87% 29.84 in 6.0 mi NW 8.1 mph - N/A   Overcast
7:15 PM 37.4 °F 32.1 °F 33.8 °F 87% 29.85 in 3.0 mi NW 6.9 mph - N/A   Overcast
7:35 PM 37.4 °F 32.1 °F 33.8 °F 87% 29.86 in 8.0 mi NNW 6.9 mph - N/A   Overcast
7:55 PM 37.4 °F 32.8 °F 33.8 °F 87% 29.87 in 9.0 mi NW 5.8 mph - N/A   Overcast
8:15 PM 37.4 °F 32.8 °F 32.0 °F 81% 29.87 in 10.0 mi NNW 5.8 mph - N/A   Overcast
8:35 PM 37.4 °F 32.1 °F 32.0 °F 81% 29.87 in 10.0 mi NNW 6.9 mph - N/A   Overcast
8:55 PM 37.4 °F 31.4 °F 30.2 °F 75% 29.89 in 10.0 mi NNW 8.1 mph - N/A   Overcast
9:15 PM 35.6 °F 29.2 °F 30.2 °F 81% 29.88 in 10.0 mi NW 8.1 mph - N/A   Overcast
9:35 PM 35.6 °F 29.9 °F 30.2 °F 81% 29.89 in 10.0 mi NNW 6.9 mph - N/A   Overcast
9:55 PM 35.6 °F 29.2 °F 28.4 °F 75% 29.89 in 10.0 mi NNW 8.1 mph - N/A   Overcast
10:15 PM 35.6 °F 29.2 °F 28.4 °F 75% 29.90 in 10.0 mi NNW 8.1 mph - N/A   Overcast
10:35 PM 33.8 °F 27.0 °F 28.4 °F 81% 29.91 in 10.0 mi NNW 8.1 mph - N/A   Overcast
10:55 PM 33.8 °F 27.7 °F 28.4 °F 81% 29.93 in 10.0 mi NW 6.9 mph - N/A   Overcast
11:15 PM 33.8 °F 27.7 °F 28.4 °F 81% 29.94 in 10.0 mi NNW 6.9 mph - N/A   Overcast
11:35 PM 32.0 °F 26.4 °F 26.6 °F 80% 29.95 in 10.0 mi NW 5.8 mph - N/A   Overcast
11:55 PM 32.0 °F 24.8 °F 26.6 °F 80% 29.95 in 10.0 mi NNW 8.1 mph - N/A   Overcast